BWA25Q TJSJ-TTPP

Flight info

Callsign BWA25Q
Flight time N/A
Altitude 21000
Route SJU RTE2 COY A555 ILURI DCT TULEX DCT ALGUS DCT GND A324 POS
Aircraft AT76/M-SDFGIRY/S

Departure

Time 2026-05-01 10:15
Airport Luis Munoz Marin International Airport (TJSJ)

Arrival

Time N/A
Airport Piarco International Airport (TTPP)
Time Latitude Longitude Altitude Speed Heading
2026-05-01 09:49 18.44105 -66.00348 14 ft 0 kts 155°
2026-05-01 10:00 18.44093 -66.00347 16 ft 4 kts 191°
2026-05-01 10:01 18.44094 -66.00378 15 ft 5 kts 321°
2026-05-01 10:01 18.44112 -66.00399 15 ft 7 kts 306°
2026-05-01 10:01 18.44125 -66.00452 14 ft 9 kts 267°
2026-05-01 10:01 18.44112 -66.00519 14 ft 10 kts 252°
2026-05-01 10:02 18.44095 -66.00588 14 ft 10 kts 247°
2026-05-01 10:02 18.44066 -66.00656 14 ft 10 kts 245°
2026-05-01 10:02 18.44048 -66.00695 15 ft 0 kts 245°
2026-05-01 10:02 18.44105 -66.00348 14 ft 3 kts 155°
2026-05-01 10:10 18.44104 -66.00347 14 ft 1 kts 155°
2026-05-01 10:10 18.44099 -66.00376 15 ft 6 kts 320°
2026-05-01 10:11 18.44127 -66.00418 15 ft 8 kts 268°
2026-05-01 10:11 18.44123 -66.00487 14 ft 11 kts 265°
2026-05-01 10:11 18.44100 -66.00564 14 ft 11 kts 247°
2026-05-01 10:11 18.44067 -66.00643 14 ft 12 kts 247°
2026-05-01 10:12 18.44034 -66.00725 16 ft 12 kts 246°
2026-05-01 10:12 18.43999 -66.00809 14 ft 13 kts 246°
2026-05-01 10:12 18.43929 -66.00981 14 ft 13 kts 247°
2026-05-01 10:13 18.43894 -66.01066 14 ft 13 kts 246°
2026-05-01 10:13 18.43861 -66.01155 14 ft 13 kts 252°
2026-05-01 10:13 18.43831 -66.01242 14 ft 12 kts 247°
2026-05-01 10:14 18.43855 -66.01372 14 ft 10 kts 336°
2026-05-01 10:14 18.43920 -66.01369 14 ft 10 kts 45°
2026-05-01 10:14 18.44009 -66.01160 15 ft 61 kts 67°
2026-05-01 10:14 18.44248 -66.00561 14 ft 114 kts 67°
2026-05-01 10:15 18.44619 -65.99712 249 ft 133 kts 66°
2026-05-01 10:15 18.45033 -65.98822 729 ft 137 kts 66°
2026-05-01 10:15 18.45411 -65.97844 1084 ft 151 kts 73°
2026-05-01 10:15 18.45709 -65.96768 1484 ft 152 kts 76°
2026-05-01 10:16 18.45985 -65.95710 1905 ft 149 kts 77°
2026-05-01 10:16 18.46264 -65.94666 2268 ft 148 kts 77°
2026-05-01 10:16 18.46847 -65.92587 2922 ft 153 kts 76°
2026-05-01 10:17 18.47163 -65.91463 3057 ft 166 kts 75°
2026-05-01 10:17 18.47902 -65.88994 3576 ft 177 kts 74°
2026-05-01 10:17 18.48283 -65.87757 3890 ft 178 kts 73°
2026-05-01 10:18 18.49027 -65.85261 4516 ft 179 kts 74°
2026-05-01 10:18 18.49401 -65.84004 4824 ft 180 kts 74°
2026-05-01 10:18 18.49775 -65.82740 5104 ft 182 kts 73°
2026-05-01 10:19 18.50147 -65.81473 5426 ft 181 kts 73°
2026-05-01 10:19 18.50517 -65.80216 5717 ft 182 kts 73°
2026-05-01 10:19 18.50894 -65.78930 5977 ft 185 kts 73°
2026-05-01 10:20 18.51660 -65.76311 6507 ft 189 kts 72°
2026-05-01 10:20 18.52051 -65.74990 6782 ft 189 kts 71°
2026-05-01 10:20 18.52448 -65.73660 7029 ft 191 kts 71°
2026-05-01 10:20 18.52847 -65.72318 7280 ft 193 kts 72°
2026-05-01 10:21 18.53248 -65.70967 7533 ft 194 kts 71°
2026-05-01 10:21 18.54059 -65.68241 8017 ft 196 kts 71°
2026-05-01 10:21 18.54468 -65.66864 8256 ft 198 kts 71°
2026-05-01 10:22 18.55294 -65.64077 8762 ft 200 kts 70°
2026-05-01 10:22 18.56095 -65.61250 9213 ft 203 kts 78°
2026-05-01 10:23 18.56282 -65.59763 9429 ft 207 kts 83°
2026-05-01 10:23 18.56519 -65.56744 9915 ft 207 kts 83°
2026-05-01 10:23 18.56646 -65.55224 10110 ft 209 kts 83°
2026-05-01 10:24 18.56955 -65.52162 10523 ft 211 kts 82°
2026-05-01 10:24 18.57295 -65.49079 10917 ft 213 kts 82°
2026-05-01 10:25 18.57642 -65.45954 11293 ft 216 kts 83°
2026-05-01 10:25 18.57991 -65.42809 11701 ft 217 kts 83°
2026-05-01 10:26 18.58161 -65.41221 11872 ft 219 kts 84°
2026-05-01 10:26 18.58329 -65.39633 12076 ft 219 kts 84°
2026-05-01 10:26 18.58661 -65.36459 12484 ft 220 kts 84°
2026-05-01 10:27 18.59000 -65.33237 12854 ft 222 kts 84°
2026-05-01 10:27 18.58883 -65.30062 13142 ft 219 kts 123°
2026-05-01 10:28 18.57930 -65.28823 13312 ft 217 kts 138°
2026-05-01 10:28 18.55532 -65.26914 13669 ft 216 kts 150°
2026-05-01 10:28 18.54256 -65.26078 13833 ft 216 kts 151°
2026-05-01 10:29 18.51694 -65.24385 14118 ft 219 kts 150°
2026-05-01 10:29 18.50418 -65.23512 14268 ft 220 kts 150°
2026-05-01 10:30 18.47854 -65.21731 14554 ft 222 kts 150°
2026-05-01 10:30 18.45265 -65.19928 14830 ft 224 kts 150°
2026-05-01 10:31 18.42655 -65.18109 15100 ft 226 kts 150°
2026-05-01 10:31 18.40024 -65.16276 15329 ft 229 kts 151°
2026-05-01 10:32 18.37373 -65.14396 15577 ft 230 kts 151°
2026-05-01 10:32 18.36044 -65.13450 15699 ft 231 kts 151°
2026-05-01 10:32 18.33359 -65.11571 15931 ft 232 kts 152°
2026-05-01 10:33 18.30655 -65.09689 16169 ft 234 kts 152°
2026-05-01 10:33 18.27927 -65.07795 16432 ft 236 kts 152°
2026-05-01 10:34 18.26558 -65.06843 16562 ft 236 kts 152°
2026-05-01 10:34 18.25183 -65.05887 16685 ft 237 kts 152°
2026-05-01 10:34 18.23805 -65.04929 16806 ft 238 kts 152°
2026-05-01 10:35 18.21052 -65.03018 17044 ft 239 kts 152°
2026-05-01 10:35 18.19661 -65.02052 17163 ft 240 kts 152°
2026-05-01 10:35 18.18266 -65.01083 17272 ft 241 kts 152°
2026-05-01 10:35 18.16865 -65.00110 17373 ft 241 kts 152°
2026-05-01 10:36 18.14056 -64.98161 17589 ft 243 kts 152°
2026-05-01 10:36 18.12646 -64.97184 17702 ft 242 kts 151°
2026-05-01 10:36 18.11240 -64.96207 17800 ft 243 kts 151°
2026-05-01 10:37 18.09828 -64.95227 17898 ft 243 kts 151°
2026-05-01 10:37 18.06999 -64.93262 18082 ft 244 kts 151°
2026-05-01 10:37 18.05579 -64.92279 18181 ft 243 kts 151°
2026-05-01 10:38 18.04177 -64.91307 18305 ft 242 kts 151°
2026-05-01 10:38 18.02774 -64.90333 18381 ft 242 kts 152°
2026-05-01 10:38 18.01364 -64.89357 18456 ft 243 kts 152°
2026-05-01 10:38 17.99954 -64.88380 18560 ft 243 kts 152°
2026-05-01 10:39 17.99020 -64.87733 18624 ft 243 kts 152°
2026-05-01 10:39 17.97607 -64.86753 18718 ft 243 kts 152°
2026-05-01 10:39 17.96191 -64.85775 18815 ft 244 kts 152°
2026-05-01 10:39 17.94776 -64.84794 18901 ft 244 kts 152°
2026-05-01 10:40 17.93357 -64.83813 18993 ft 244 kts 152°
2026-05-01 10:40 17.91937 -64.82830 19081 ft 244 kts 152°
2026-05-01 10:40 17.90518 -64.81848 19174 ft 245 kts 152°
2026-05-01 10:40 17.89096 -64.80865 19254 ft 245 kts 152°
2026-05-01 10:41 17.87674 -64.79880 19335 ft 245 kts 152°
2026-05-01 10:41 17.86248 -64.78897 19411 ft 245 kts 152°
2026-05-01 10:41 17.83390 -64.76922 19564 ft 246 kts 152°
2026-05-01 10:42 17.81960 -64.75932 19627 ft 246 kts 152°
2026-05-01 10:42 17.80529 -64.74944 19701 ft 247 kts 152°
2026-05-01 10:42 17.79116 -64.73967 19773 ft 247 kts 152°
2026-05-01 10:42 17.77684 -64.72978 19843 ft 247 kts 152°
2026-05-01 10:43 17.76247 -64.71988 19905 ft 247 kts 152°
2026-05-01 10:43 17.74811 -64.70995 19967 ft 247 kts 152°
2026-05-01 10:43 17.73378 -64.69995 20021 ft 248 kts 149°
2026-05-01 10:43 17.72110 -64.68739 20055 ft 254 kts 136°
2026-05-01 10:44 17.70977 -64.67314 20110 ft 254 kts 134°
2026-05-01 10:44 17.69877 -64.65869 20191 ft 253 kts 134°
2026-05-01 10:44 17.68763 -64.64439 20237 ft 253 kts 135°
2026-05-01 10:44 17.67616 -64.63041 20290 ft 253 kts 137°
2026-05-01 10:45 17.66456 -64.61658 20336 ft 253 kts 136°
2026-05-01 10:45 17.65295 -64.60267 20379 ft 253 kts 136°
2026-05-01 10:45 17.64134 -64.58878 20414 ft 253 kts 136°
2026-05-01 10:45 17.62974 -64.57488 20447 ft 254 kts 137°
2026-05-01 10:46 17.61811 -64.56095 20479 ft 254 kts 137°
2026-05-01 10:46 17.60648 -64.54702 20517 ft 254 kts 136°
2026-05-01 10:46 17.59487 -64.53309 20542 ft 254 kts 137°
2026-05-01 10:46 17.58321 -64.51913 20571 ft 254 kts 137°
2026-05-01 10:47 17.57155 -64.50519 20598 ft 254 kts 136°
2026-05-01 10:47 17.55990 -64.49123 20626 ft 255 kts 136°
2026-05-01 10:47 17.54824 -64.47729 20655 ft 255 kts 136°
2026-05-01 10:47 17.53658 -64.46332 20682 ft 255 kts 137°
2026-05-01 10:48 17.52493 -64.44940 20750 ft 253 kts 137°
2026-05-01 10:48 17.51345 -64.43568 20872 ft 249 kts 137°
2026-05-01 10:48 17.50201 -64.42201 20930 ft 250 kts 137°
2026-05-01 10:48 17.49052 -64.40828 20958 ft 252 kts 137°
2026-05-01 10:49 17.47890 -64.39438 20973 ft 255 kts 137°
2026-05-01 10:49 17.46717 -64.38036 20980 ft 257 kts 137°
2026-05-01 10:49 17.45535 -64.36622 20983 ft 259 kts 137°
2026-05-01 10:49 17.44342 -64.35196 20986 ft 261 kts 137°
2026-05-01 10:50 17.43139 -64.33760 20988 ft 263 kts 137°
2026-05-01 10:50 17.41930 -64.32316 20984 ft 264 kts 137°
2026-05-01 10:50 17.40714 -64.30865 20987 ft 266 kts 136°
2026-05-01 10:50 17.39492 -64.29405 20990 ft 267 kts 136°
2026-05-01 10:51 17.38268 -64.27944 20986 ft 268 kts 136°
2026-05-01 10:51 17.37039 -64.26476 20990 ft 268 kts 136°
2026-05-01 10:51 17.35805 -64.25006 20990 ft 269 kts 136°
2026-05-01 10:51 17.34568 -64.23531 20986 ft 270 kts 136°
2026-05-01 10:52 17.33330 -64.22056 20981 ft 270 kts 136°
2026-05-01 10:52 17.32088 -64.20581 20991 ft 270 kts 136°
2026-05-01 10:52 17.30849 -64.19100 20992 ft 271 kts 136°
2026-05-01 10:52 17.29625 -64.17638 20987 ft 271 kts 136°
2026-05-01 10:53 17.28381 -64.16154 20993 ft 271 kts 136°
2026-05-01 10:53 17.27135 -64.14669 20992 ft 271 kts 136°
2026-05-01 10:53 17.25888 -64.13187 20991 ft 271 kts 136°
2026-05-01 10:53 17.24642 -64.11702 20995 ft 272 kts 136°
2026-05-01 10:54 17.23394 -64.10219 20993 ft 272 kts 136°
2026-05-01 10:54 17.22146 -64.08733 20993 ft 272 kts 136°